Location: Marcé
(47.5801°N, 0.3280°W)
Time: 08:06:05
(UTC+01:00)

Courier 1B - Pass Details

Date: 06 December 2021
Orbit: 962 x 1209 km, 28.3° (Epoch: 23 January)

Event Time Altitude Azimuth Distance (km) Brightness Sun altitude
Rises 18:25:25 0° 236° (SW) 4,038 12.5 -12.1°
Reaches altitude 10° 18:29:31 10° 216° (SW) 3,033 11.0 -12.8°
Maximum altitude 18:33:45 16° 181° (S) 2,552 9.9 -13.4°
Drops below altitude 10° 18:37:52 10° 146° (SSE) 2,929 9.8 -14.1°
Sets 18:41:43 0° 126° (SE) 3,832 10.3 -14.7°
